Погода в Синде

Россия / Хабаровский край     48°57′21″N   136°17′37″E
темп.,
°C
ветер,
м/с
пор.,
м/с
влажн.,
%
обл.,
%
осадки,
мм/ч
давл.,
гПа
погр.,
м
24 сентября, пт
пт2401:00+7ссв35790 0.0 102382
04:00+6с33825 0.0 102442
07:00+5с11860 0.0 102610
10:00+12с12590 0.0 1027382
13:00+16ссз12440 0.0 10261176
16:00+17зюз23425 0.0 10261473
19:00+11ююз336774 0.0 102633
22:00+9ю347415 0.0 102761
25 сентября, сб
сб2501:00+8ю3882100 0.0 1027128
04:00+8ю3882100 0.0 1027158
07:00+7ю378383 0.0 1028137
10:00+14ююз4660100 0.0 1028409
13:00+18юз34455 0.0 10261142
16:00+19зюз44445 0.0 10251238
19:00+13зюз3369100 0.0 102623
22:00+11ю3373100 0.0 102643
26 сентября, вс
вс2601:00+10ю3476100 0.0 102565
04:00+10ююз3579100 0.0 102594
07:00+9ююз358169 0.0 102595
10:00+15ююз45595 0.0 1025463
13:00+19юз34430 0.0 10231152
16:00+20зюз34415 0.0 10221121
19:00+13юз22645 0.0 102114
22:00+11ю33715 0.0 102131
27 сентября, пн
пн2701:00+9ю35775 0.0 102168
04:00+8ю378256 0.0 102099
07:00+8ю368474 0.0 102088
10:00+15ююз355699 0.0 1019379
13:00+20ююз4548100 0.0 10171000
16:00+20ююз4550100 0.0 10151070
19:00+15ю3370100 0.0 101535
22:00+14ю3982100 0.0 1015176
28 сентября, вт
вт2801:00+15ю41274100 0.0 1014369
04:00+14ююз41291100 4.6 1014412
07:00+14ююз4996100 1.1 1015344
10:00+16ююз5792100 1.1 1016426
13:00+18ююз567999 0.1 1015852
16:00+20ю466815 0.2 10141010
19:00+15ю388785 0.1 1014140
22:00+14ю3593100 0.1 101392